Theta_e
306 306 307 310 315 320 320 318 317 315 315 315 314 315 313 315 317 316 320 320 318 335 343 343 340 331 336 340 338 342 345 344 344 343 341 345 346 346 347 347 345 345 344 341 343 339 335 335 335 336 337 337 337 336 336 335 333 331 331 329 327 325 324 322 321 323 324 325 326 327 328 328 327 327 328 328 328 328 327 325 323 320 318 317 316 316 316 317 316 317 316 313 311 314 317 317 315
306 307 308 313 317 319 321 317 315 315 314 312 313 315 314 315 317 321 329 322 325 344 345 344 344 341 343 343 342 344 346 345 344 346 346 347 347 348 348 347 346 345 344 342 342 339 335 335 335 337 337 337 337 336 337 336 335 333 332 330 329 328 327 326 325 325 327 329 330 331 330 330 330 329 329 329 329 329 329 328 328 326 322 318 316 316 315 316 316 316 316 314 312 313 316 316 315
307 308 311 316 318 318 320 317 315 315 313 310 312 314 314 316 319 327 334 327 336 345 342 344 343 344 345 343 345 345 347 346 344 349 348 348 348 348 347 346 345 345 344 343 343 340 336 336 335 337 337 337 337 336 337 336 336 334 332 331 330 330 329 328 327 327 328 329 330 331 330 330 330 330 329 330 330 331 333 333 334 331 328 323 319 317 315 315 315 314 315 315 313 314 316 315 315
311 312 315 318 318 317 318 316 316 315 311 311 311 313 314 317 318 327 340 338 342 343 341 345 343 345 345 344 346 346 348 347 347 349 348 348 347 346 347 346 345 344 344 343 343 340 336 336 335 336 337 338 337 336 336 336 336 335 333 332 331 330 330 329 329 329 329 330 331 330 330 329 329 330 330 331 331 332 334 335 335 334 332 328 324 320 317 315 316 315 314 315 315 315 315 314 315
315 315 317 318 317 316 317 315 315 314 312 312 312 313 314 316 316 323 339 343 344 342 341 344 343 344 344 347 346 345 348 348 348 348 348 348 345 345 346 345 345 345 343 344 343 340 337 335 335 336 337 338 337 336 336 337 337 336 334 332 332 331 330 331 330 330 330 331 331 331 330 329 329 330 330 331 331 332 333 335 335 335 334 331 330 327 323 319 317 316 314 313 314 314 315 314 314
316 317 316 316 315 315 315 313 313 315 314 314 314 315 315 315 316 317 326 334 342 342 342 343 342 345 346 348 347 347 348 349 348 348 348 346 344 344 346 345 345 344 343 344 343 340 338 335 334 335 337 338 337 336 335 337 337 337 336 333 332 331 331 332 331 331 331 331 331 331 331 330 330 330 330 330 331 332 333 333 334 334 333 332 332 331 328 325 321 318 317 313 313 314 314 314 314
317 316 315 315 315 314 315 314 313 315 314 314 314 316 315 315 315 316 316 319 333 341 342 342 342 345 346 346 346 347 348 349 349 348 346 345 344 345 346 345 344 344 343 343 341 340 339 335 334 335 338 338 338 337 336 336 337 338 336 333 333 333 333 332 332 332 331 331 331 331 330 330 329 329 330 330 330 330 331 331 332 332 332 331 331 330 329 328 326 322 319 316 313 314 314 313 314
316 314 314 315 314 313 315 315 314 315 313 313 314 315 316 316 315 315 316 316 328 341 342 343 344 344 346 346 347 347 348 348 348 347 345 344 344 344 345 344 344 343 343 343 341 340 339 335 333 336 338 338 337 337 336 336 337 338 336 335 335 335 334 333 333 331 331 330 330 329 327 327 326 327 328 328 328 328 329 331 331 331 331 331 331 330 329 328 327 325 322 320 314 313 314 313 313
314 314 314 314 315 314 313 314 314 313 312 314 314 315 316 316 316 315 316 316 325 341 345 344 343 342 346 348 348 347 347 347 348 347 345 345 345 344 344 344 343 343 343 342 340 339 338 335 333 336 338 338 337 337 337 336 337 338 337 336 336 336 335 334 333 332 330 329 327 325 324 324 324 325 324 325 325 327 329 329 330 330 330 331 331 331 330 329 328 326 324 323 318 314 314 314 313
314 313 313 314 314 313 313 312 313 313 313 314 314 315 315 314 314 314 315 315 323 340 346 343 342 344 347 348 348 348 348 348 349 347 345 346 345 344 343 343 343 343 343 342 340 339 338 336 334 336 338 338 337 337 336 336 337 338 337 337 336 335 334 333 332 330 329 326 324 323 324 325 326 326 325 324 325 327 329 329 329 330 330 330 331 330 329 329 328 326 325 324 322 317 314 315 314
314 313 312 313 313 313 313 312 313 314 313 313 314 315 314 313 313 314 314 318 329 342 345 343 344 346 347 347 348 347 346 348 349 347 346 347 347 345 343 343 343 343 343 341 340 338 337 337 335 336 338 338 336 336 335 336 337 337 337 336 335 333 332 331 330 328 325 324 324 326 327 328 328 327 326 326 326 328 328 329 329 330 331 330 331 330 328 327 326 325 325 324 324 321 315 314 315
314 312 312 314 314 313 312 312 313 315 315 314 315 314 313 312 312 314 311 322 338 344 345 343 344 346 346 346 347 347 347 348 348 347 346 347 348 346 344 343 343 342 342 341 340 339 337 337 336 337 338 337 336 335 334 335 336 336 336 334 332 331 330 329 326 325 323 324 326 328 329 329 329 327 327 326 325 325 326 328 329 330 330 331 330 328 325 323 321 321 322 323 323 323 319 315 315
314 312 312 313 312 312 312 312 313 315 316 315 314 313 316 315 316 321 321 332 344 343 344 343 343 345 345 347 347 347 347 347 348 348 347 348 348 347 344 343 343 342 341 340 339 338 339 338 337 337 338 337 336 335 333 333 334 335 334 332 331 330 328 327 324 323 324 326 328 330 331 331 329 328 327 325 324 323 324 325 327 328 328 329 328 325 323 322 320 317 316 319 321 322 322 318 316
314 312 313 313 310 311 312 313 313 314 314 315 313 313 320 324 327 334 336 341 343 340 342 342 342 344 346 346 346 347 347 346 347 348 348 349 349 348 344 342 342 340 340 339 339 338 339 338 337 336 337 336 336 335 332 333 333 333 333 332 331 330 327 325 323 323 326 328 330 331 332 331 330 328 327 325 324 323 322 322 323 324 325 326 326 325 325 324 322 319 314 316 320 322 322 321 320
314 312 313 314 311 311 312 312 312 313 314 314 313 312 322 332 335 339 341 341 341 341 342 343 342 341 343 345 345 346 347 347 347 348 349 349 349 347 344 342 341 340 341 340 338 337 337 337 336 336 336 336 337 334 332 332 332 332 334 333 331 328 326 325 324 325 327 329 331 331 332 331 331 329 327 326 325 324 323 323 322 321 321 322 325 325 324 322 323 322 317 315 319 321 322 322 324
313 312 313 313 311 311 311 312 311 313 314 314 313 312 320 331 335 337 337 339 341 342 342 344 343 337 340 343 344 344 346 347 347 348 349 349 348 345 343 341 340 341 341 339 337 336 336 337 337 336 336 338 336 332 330 330 330 332 333 331 329 327 326 325 325 326 327 328 330 331 331 330 330 329 328 327 326 325 325 324 324 322 321 320 321 321 320 321 322 322 319 316 316 320 321 322 326
313 312 313 313 311 311 311 312 312 313 315 313 313 312 313 325 336 337 336 338 343 343 341 342 342 338 338 343 343 341 344 347 346 348 348 347 346 344 343 342 340 339 339 338 337 336 336 336 336 336 337 337 333 330 329 328 330 333 332 329 328 327 327 327 326 326 327 328 329 330 330 331 330 330 328 329 328 326 326 325 325 324 322 321 319 318 317 320 322 322 321 317 316 319 320 322 326
314 313 313 312 312 312 313 313 313 312 314 314 313 313 312 318 335 339 338 341 343 342 340 340 343 340 338 341 342 342 344 346 346 347 347 345 344 343 342 342 339 338 338 337 336 335 335 335 336 336 335 333 328 328 329 327 330 332 331 330 329 327 327 328 327 327 329 329 329 330 330 330 330 330 329 329 328 327 327 326 325 324 322 321 319 319 317 318 322 323 321 319 317 319 320 321 325
314 313 313 312 312 312 312 313 313 312 313 314 313 312 312 313 327 337 337 339 342 340 340 341 343 341 341 342 343 344 344 346 346 345 346 344 343 342 341 340 338 337 337 336 335 335 335 336 335 335 333 330 325 326 328 329 330 331 331 331 329 328 329 329 329 329 330 330 330 331 331 330 330 330 329 329 329 328 327 326 326 325 323 321 320 319 319 318 320 323 323 320 319 320 320 321 324
312 312 313 313 312 312 312 312 313 313 312 314 314 312 313 310 320 333 337 338 340 339 339 341 343 342 342 343 343 344 344 345 344 344 344 341 341 340 339 338 336 336 335 334 334 334 334 334 335 334 332 328 326 327 329 330 331 330 332 332 329 330 331 331 330 329 330 329 329 330 330 330 331 329 329 329 329 329 328 326 326 327 326 324 322 321 321 320 320 323 324 322 321 322 322 320 323
312 312 314 312 310 311 313 312 312 313 311 312 312 311 314 311 317 331 337 335 336 338 339 338 339 340 341 343 343 345 345 344 343 343 342 340 340 339 337 337 335 334 333 332 332 332 332 332 333 333 331 328 328 328 329 330 330 330 332 332 330 331 332 331 331 330 329 328 328 328 328 330 331 330 329 329 329 329 329 327 325 327 329 327 324 323 323 322 322 323 324 322 322 323 323 321 322
310 311 312 311 310 311 313 312 312 312 311 311 311 312 312 313 320 331 335 330 329 333 335 334 335 336 338 341 342 345 346 344 343 342 342 340 340 338 336 336 334 334 333 331 332 331 331 333 333 332 329 328 329 329 329 330 331 330 330 330 330 332 331 331 331 331 330 329 328 328 328 329 329 329 329 329 329 329 330 329 326 325 327 328 326 324 323 323 322 322 323 321 321 322 323 322 321
312 311 310 310 310 311 313 312 312 311 311 311 311 312 311 313 317 325 333 329 325 328 327 328 331 334 337 339 341 345 345 344 343 342 341 340 339 337 336 335 334 334 333 332 332 330 330 332 332 330 327 329 331 330 331 331 332 332 330 330 330 331 332 331 331 331 330 330 329 328 328 328 328 328 328 328 328 329 329 329 328 325 325 326 326 324 324 323 322 322 323 321 321 322 323 322 321
312 311 310 312 310 311 312 311 312 311 311 311 311 311 311 313 311 317 328 328 326 325 322 322 326 334 339 339 342 345 344 344 343 343 342 340 338 337 336 335 334 333 332 332 332 330 329 329 331 330 328 331 332 331 332 331 331 333 332 331 331 332 333 332 331 331 330 330 330 328 327 328 328 327 327 328 328 329 329 327 327 327 324 324 324 324 325 325 322 322 323 321 321 322 323 322 321
310 312 311 311 310 311 312 311 312 311 311 310 310 311 311 312 311 316 321 321 325 323 321 321 324 334 339 340 344 345 344 343 343 343 342 339 337 336 334 333 333 333 331 332 333 329 327 328 330 331 329 330 331 330 331 331 332 334 333 333 332 332 332 332 332 331 330 329 330 329 328 328 328 328 328 328 327 328 329 327 326 327 325 324 325 325 326 326 323 323 323 321 322 323 324 323 321
311 312 311 310 310 311 311 311 312 312 311 310 310 312 312 311 312 315 315 318 324 325 326 327 329 337 341 342 344 344 344 343 343 344 342 338 337 337 335 335 334 333 332 333 333 329 327 328 329 331 329 330 331 331 330 331 333 333 333 333 332 331 331 331 331 331 331 331 330 330 329 329 329 329 329 328 327 328 329 327 325 325 325 326 326 326 326 325 324 323 321 321 324 324 325 324 321
310 310 310 310 310 310 311 311 312 312 311 310 311 312 312 313 313 315 318 324 328 330 332 334 337 342 343 344 345 345 344 342 342 343 340 336 337 337 335 335 335 334 334 333 333 331 329 330 330 331 332 332 332 331 331 332 333 332 333 332 330 330 330 330 330 331 331 332 331 331 331 330 330 330 330 330 328 327 328 327 325 325 325 326 326 326 326 325 324 324 321 322 325 325 325 325 322
310 310 311 310 310 310 311 311 311 311 311 311 310 311 312 314 315 314 321 329 334 334 335 338 341 343 343 344 344 344 343 341 342 342 339 336 337 338 334 332 333 334 334 333 332 331 330 331 331 330 332 333 331 330 331 332 332 333 333 331 330 330 330 330 330 330 331 331 332 332 332 331 331 331 330 331 329 326 325 327 328 327 326 326 326 326 326 325 325 324 322 324 325 325 325 325 323
310 310 312 311 310 312 310 309 310 310 312 311 310 311 311 314 316 315 323 332 336 336 337 339 340 342 343 343 343 343 342 341 342 342 341 339 338 338 334 330 331 332 333 332 330 330 331 331 329 326 328 330 327 327 329 329 330 331 332 332 331 330 329 329 330 331 331 331 331 331 332 332 331 330 330 330 330 326 324 326 328 328 326 325 326 325 326 327 327 324 322 324 324 323 324 325 325
311 310 311 312 312 312 310 308 308 309 311 311 311 312 312 314 314 316 326 334 336 337 338 338 339 339 340 340 342 342 341 342 342 341 341 337 333 335 335 332 330 330 329 329 329 329 331 330 328 325 324 325 323 324 328 329 330 332 333 333 331 330 330 329 329 330 330 330 330 330 331 331 330 329 329 328 328 326 325 326 327 327 326 324 325 326 326 327 328 326 323 322 322 323 323 324 326
311 309 310 311 310 311 311 309 309 310 311 309 311 312 312 315 312 316 329 335 336 338 338 337 337 337 337 339 340 342 341 342 342 341 341 337 331 333 335 333 330 328 327 328 328 327 328 328 326 324 321 320 323 326 328 330 331 333 334 334 331 330 330 330 329 329 329 329 329 329 328 329 329 328 329 328 326 324 325 326 325 328 326 322 324 326 326 326 327 327 325 322 322 323 323 324 325
310 310 311 310 310 311 312 311 311 312 311 309 311 312 312 315 311 314 328 335 335 337 337 335 336 336 337 338 339 341 341 341 342 341 341 338 334 332 331 332 331 327 326 329 329 326 327 326 321 320 317 319 328 330 330 331 331 331 332 333 332 331 330 329 328 327 327 327 327 327 326 327 329 328 329 329 327 324 324 325 325 327 327 324 324 324 325 325 324 327 327 325 324 324 325 325 325
310 311 313 312 311 312 313 312 311 311 311 310 311 312 312 314 311 314 326 335 336 336 336 335 334 335 336 337 338 340 341 340 340 339 340 338 335 332 329 332 332 326 327 330 328 325 326 325 320 318 317 323 332 330 330 331 330 330 331 332 332 329 328 327 326 325 325 326 326 326 325 326 329 329 329 330 329 325 323 325 325 327 327 326 324 322 325 326 325 328 329 327 326 326 326 326 326
311 311 313 312 311 312 313 313 311 308 310 311 311 311 313 312 313 321 330 334 335 335 336 334 333 333 334 336 337 339 340 340 339 338 339 336 335 333 331 333 331 326 327 328 327 325 324 324 321 318 319 326 332 330 330 329 327 328 329 330 328 326 326 325 324 324 325 327 327 328 327 326 329 330 330 330 329 325 323 325 327 327 327 327 325 324 326 326 327 329 329 328 326 327 327 327 328
313 313 313 312 311 312 313 314 312 309 311 312 311 311 314 312 312 325 334 333 334 335 334 334 333 332 333 333 336 338 339 340 339 339 338 335 334 333 332 334 332 326 326 326 325 324 322 321 319 320 324 328 331 331 328 326 325 327 327 327 325 324 324 323 324 324 324 326 327 328 327 326 329 330 330 329 327 326 325 326 327 326 327 327 327 327 326 326 327 328 329 327 326 328 328 327 327
312 312 312 312 312 312 312 313 311 311 312 313 312 312 314 313 310 321 334 333 334 335 332 333 332 331 332 332 334 337 337 338 338 338 339 337 335 334 332 334 334 329 326 326 326 325 323 321 321 323 329 331 330 328 326 325 325 325 325 324 321 322 322 321 322 322 322 325 326 325 324 326 328 329 329 327 326 327 327 327 327 326 325 325 326 327 326 325 325 326 328 328 326 327 327 326 326
312 311 312 311 312 312 313 313 310 310 313 313 313 313 312 314 310 318 332 334 333 334 333 333 333 331 331 331 334 336 335 336 336 336 338 337 335 334 332 334 336 331 327 327 326 325 324 323 322 324 330 331 325 322 321 321 321 320 321 320 320 322 320 317 316 316 320 325 326 325 324 325 326 327 326 325 325 327 327 326 327 326 324 323 324 326 326 324 324 326 328 328 327 327 327 326 326
313 311 311 312 311 314 313 312 310 310 314 314 311 311 311 313 311 315 329 334 332 334 334 333 333 331 331 332 334 334 334 334 334 335 337 335 334 333 332 333 336 334 329 327 326 325 324 325 325 324 328 328 321 318 317 317 317 317 318 318 320 320 316 313 311 312 320 325 324 325 325 324 323 323 323 323 323 324 324 324 327 328 326 325 325 326 326 325 325 326 327 327 327 327 327 326 326
314 311 312 314 312 312 313 311 311 310 312 313 310 311 311 313 312 313 325 334 332 332 333 332 332 331 331 332 332 332 332 333 334 334 335 334 333 333 332 331 335 335 331 328 327 325 324 327 328 328 328 324 319 317 316 316 317 317 318 318 319 318 316 314 310 313 320 323 323 324 326 326 324 323 323 324 325 325 325 325 326 327 326 326 325 325 325 325 326 327 326 327 326 327 327 326 326
314 312 312 314 312 311 313 313 313 313 313 313 312 312 313 314 314 313 321 328 326 327 330 331 330 331 330 332 333 333 333 334 334 335 334 333 333 333 332 332 335 335 331 329 327 325 326 330 331 331 329 321 318 318 316 316 317 318 319 320 320 319 318 315 313 318 324 325 324 324 325 325 325 324 324 325 325 325 325 325 324 324 324 323 323 323 323 323 324 325 326 327 326 327 327 326 326
315 315 313 314 313 312 313 314 315 316 314 314 314 313 314 315 315 314 317 320 322 325 329 330 330 329 330 333 335 334 334 335 336 336 334 333 335 335 334 334 334 334 330 327 326 325 328 332 333 332 328 320 317 317 316 317 317 318 320 320 319 319 318 315 313 317 323 324 324 324 325 325 325 325 325 324 324 324 323 322 321 321 320 319 319 320 320 320 321 322 324 326 326 326 326 326 326
314 316 315 314 314 313 314 314 316 316 315 315 314 313 314 316 316 314 313 316 321 325 327 330 330 328 329 332 333 331 331 333 333 334 333 332 334 335 335 335 335 335 331 329 329 329 330 333 335 331 324 318 316 316 316 316 318 318 318 318 318 318 318 314 310 310 313 316 318 319 319 320 320 321 321 320 319 319 318 317 316 316 315 315 315 317 318 320 321 322 323 325 325 325 325 325 325
313 317 317 314 312 314 316 316 315 314 314 315 314 313 314 315 315 314 313 315 320 322 325 329 330 329 329 330 331 329 329 329 329 330 330 331 334 335 335 334 334 332 329 329 331 331 331 331 333 331 323 318 317 317 316 316 318 319 318 317 317 317 317 312 307 307 308 308 309 309 309 310 311 312 312 312 312 314 314 314 314 314 314 314 315 317 319 320 321 322 322 323 324 324 324 324 325
315 317 315 312 311 314 317 317 315 314 315 315 315 315 314 315 315 314 313 317 319 319 322 326 328 330 329 329 331 329 329 328 327 327 326 328 332 333 334 332 329 327 327 330 330 331 330 325 328 332 328 324 323 319 317 317 318 319 319 319 318 317 316 313 308 307 307 307 307 307 306 306 307 308 310 312 314 315 315 315 314 314 315 316 317 319 319 319 320 320 321 321 322 323 323 323 324
315 313 311 311 312 314 317 316 315 316 315 315 315 315 315 314 316 315 314 317 320 319 321 323 326 329 329 329 330 328 328 327 325 325 325 326 328 330 331 330 329 330 332 331 330 331 329 325 328 332 331 329 325 319 317 317 318 319 319 320 319 318 318 315 309 306 307 307 307 307 306 306 307 308 311 315 318 317 316 315 315 316 317 318 318 318 318 319 319 319 320 320 320 321 321 321 322
312 309 310 311 312 314 316 315 315 316 315 314 315 315 314 314 315 315 314 316 318 318 319 320 322 326 328 329 329 328 328 326 325 325 325 325 327 328 330 330 332 334 333 331 330 330 328 326 328 330 330 328 323 317 317 318 318 319 320 320 319 318 319 316 310 307 307 307 307 306 306 305 305 307 310 315 317 317 315 315 317 319 319 318 317 317 319 320 320 320 319 319 320 320 320 321 321
309 310 312 312 313 316 316 315 316 316 314 314 314 315 316 314 315 315 315 315 315 315 317 318 318 320 324 327 329 328 327 326 325 325 325 326 327 328 329 329 331 332 332 332 330 329 328 326 325 327 327 325 320 317 318 318 318 319 320 321 320 320 318 314 309 307 308 307 306 306 305 305 305 305 308 312 314 314 312 313 317 319 318 317 316 317 320 320 319 319 318 319 320 320 320 320 320
309 312 313 312 314 315 315 315 315 314 314 313 313 314 316 314 314 315 316 315 313 313 314 315 315 315 317 321 326 327 327 327 326 325 326 327 327 328 328 329 329 330 332 331 330 330 328 326 325 325 325 324 321 319 319 319 319 320 320 321 322 321 317 311 308 308 308 307 306 305 305 304 305 307 309 311 311 310 309 310 313 315 314 313 313 317 319 319 318 318 317 318 319 320 319 320 319
310 313 314 313 313 314 314 314 314 314 315 314 312 314 315 314 315 315 315 314 313 314 315 315 315 317 315 314 320 325 326 326 326 326 326 326 327 327 327 328 328 328 330 330 329 329 327 325 325 324 323 324 322 320 319 319 319 320 320 321 322 322 316 310 308 308 308 307 305 304 304 304 305 308 309 310 309 307 307 307 308 308 308 309 311 314 316 317 316 315 315 316 318 318 318 316 313
312 313 314 314 313 313 313 312 312 314 315 313 312 313 314 314 315 313 313 314 315 316 317 317 318 318 316 314 317 324 325 325 326 325 326 326 326 326 326 326 326 326 328 328 328 328 326 325 325 323 322 322 321 320 321 320 320 321 322 322 320 319 315 311 309 309 308 307 305 304 305 304 306 307 308 308 306 306 306 305 305 305 305 306 307 308 309 309 309 308 309 310 311 311 311 308 306
310 311 312 313 313 313 313 313 314 314 315 313 312 313 315 316 315 313 313 315 316 317 318 318 319 319 318 317 320 323 324 325 325 325 325 325 325 326 327 327 326 326 327 326 327 327 326 324 324 324 323 321 319 321 322 322 321 321 322 322 321 319 315 312 310 309 308 307 305 304 305 305 306 307 307 306 306 305 305 305 305 305 305 305 305 305 305 305 305 305 305 305 305 306 305 305 304
308 308 311 312 314 316 313 312 313 314 315 315 313 313 314 314 312 311 313 316 316 317 318 319 320 320 320 321 321 323 323 324 324 324 325 325 325 325 325 327 326 325 325 325 326 327 326 326 325 324 325 324 322 321 321 321 321 320 320 321 321 319 315 314 313 310 309 308 306 305 305 305 306 306 306 306 305 305 305 305 305 305 305 305 305 305 305 305 305 305 304 305 304 304 304 304 304
309 309 311 311 311 317 316 311 310 312 314 314 312 312 313 312 312 311 313 315 314 314 316 318 320 319 320 320 320 321 322 323 323 324 325 325 325 322 321 325 326 323 323 324 325 325 325 325 325 325 326 326 325 323 320 320 321 321 321 321 321 317 314 314 312 309 308 308 307 305 304 305 305 305 305 305 305 305 305 305 305 305 306 305 305 305 305 305 304 304 304 304 304 304 304 304 304
311 311 312 310 309 314 315 313 311 312 314 313 310 312 314 314 315 313 313 314 314 312 313 317 320 319 319 319 318 319 320 321 322 323 323 324 323 322 321 323 324 321 322 323 323 323 323 324 325 324 325 326 327 324 321 321 322 321 321 322 320 317 314 313 311 309 308 307 306 306 305 305 305 305 305 305 305 305 305 306 305 306 306 305 305 305 305 304 304 304 304 304 304 304 304 305 305
309 310 310 310 311 313 313 313 313 312 313 312 311 312 312 313 315 314 313 313 313 312 312 315 318 318 318 319 318 318 319 319 320 321 322 322 322 323 323 324 323 323 324 324 323 321 322 323 324 324 325 327 327 325 322 322 322 321 321 321 320 318 316 313 311 312 312 309 307 306 305 305 305 305 305 305 305 306 305 306 306 306 306 305 305 305 305 305 305 304 304 304 305 305 305 306 307
308 309 309 309 312 313 312 313 314 314 312 311 312 313 313 313 312 311 312 311 311 312 311 314 318 317 318 318 318 319 319 320 320 320 321 321 321 322 323 323 323 324 324 322 322 321 321 322 322 324 326 327 327 327 325 324 323 323 322 322 320 319 317 315 312 313 314 311 310 309 306 306 306 305 306 306 306 306 306 306 306 306 306 305 305 305 305 305 305 305 305 305 306 306 306 306 307
309 311 310 310 310 309 311 311 310 312 312 311 312 314 313 312 309 309 310 309 310 311 311 314 317 317 316 317 318 319 320 321 321 322 321 322 323 323 323 323 324 324 323 323 322 322 321 321 322 323 325 327 327 327 326 325 325 325 324 322 321 319 318 316 313 313 314 311 312 313 309 307 306 306 306 306 306 306 306 306 306 306 306 306 306 306 306 306 306 306 306 306 306 306 306 306 306
310 312 311 311 311 311 312 311 308 309 312 311 312 314 314 310 308 308 308 308 310 310 311 314 317 317 316 315 316 318 319 320 321 322 323 323 323 323 324 324 323 324 324 324 324 324 323 323 324 323 324 325 326 326 326 325 325 325 323 322 320 319 318 316 314 314 313 310 312 316 313 309 306 306 307 307 307 307 307 306 307 306 306 306 306 306 306 306 307 307 308 308 308 308 307 307 307
Wind_Speed
10 13 14 16 15 12 9 5 2 1 1 2 2 1 1 2 1 3 4 3 3 0 2 2 6 11 7 3 6 6 4 7 6 3 2 1 8 15 20 25 29 31 33 34 29 29 29 27 26 24 23 21 20 19 17 16 15 15 16 17 18 17 17 16 16 16 16 15 15 14 14 13 13 13 13 13 13 13 13 12 12 11 11 10 9 8 8 8 7 7 10 12 13 12 13 15 13
13 15 16 17 15 10 6 3 1 1 2 3 3 2 1 1 0 3 6 4 1 3 6 7 9 8 3 2 7 6 4 4 4 2 1 5 14 19 22 26 30 31 33 34 29 29 30 27 26 24 23 22 20 19 17 16 15 15 16 17 17 16 16 15 15 15 15 14 14 14 13 13 13 13 13 13 12 12 12 12 11 11 10 10 9 8 8 8 7 7 9 12 13 12 12 14 13
14 16 17 16 12 6 4 2 1 1 3 4 4 2 2 3 1 5 5 1 6 5 6 7 7 5 3 5 4 1 2 3 5 3 4 12 17 22 26 27 30 31 33 32 28 29 29 27 26 24 23 22 21 19 17 16 15 14 15 16 16 16 15 15 15 14 14 14 14 13 13 13 12 12 12 12 12 12 12 12 12 11 10 9 9 8 8 8 8 7 8 11 13 12 12 13 13
15 16 17 13 8 4 3 1 1 2 4 4 2 2 3 3 3 5 4 7 7 4 4 4 4 5 3 3 2 2 3 3 5 3 8 14 17 25 28 28 30 31 32 31 28 29 29 28 26 25 24 22 21 19 18 16 14 14 15 16 16 16 15 15 14 14 13 13 13 13 13 12 12 11 11 11 11 11 12 13 12 11 9 8 9 8 9 9 8 7 7 9 11 12 11 12 13
15 16 16 11 5 2 2 1 0 3 4 3 1 1 3 4 3 4 5 7 5 2 4 3 3 4 4 4 2 1 3 2 4 4 10 16 21 28 28 29 30 31 31 29 28 28 28 28 26 25 24 23 21 19 18 16 14 14 14 15 16 16 15 14 14 13 13 13 13 12 12 11 11 10 10 10 10 11 10 11 11 11 10 9 9 9 8 8 7 7 6 7 9 11 12 13 13
15 15 12 7 3 2 2 2 3 5 4 2 1 2 3 2 2 3 1 5 8 3 1 3 4 4 4 4 2 3 3 1 4 6 12 19 25 27 27 29 30 31 30 27 27 27 27 28 26 25 24 23 22 20 18 16 15 14 14 15 16 15 14 13 13 13 13 13 12 11 11 11 10 10 10 10 10 10 9 9 9 10 10 9 9 9 8 7 6 6 5 5 7 10 11 12 13
16 12 8 5 1 1 2 3 4 5 3 3 3 2 0 1 2 4 5 6 7 5 1 2 6 6 4 3 2 3 1 2 5 9 16 23 26 26 27 29 29 31 29 27 27 26 26 27 26 25 25 24 22 20 19 17 16 16 15 15 15 14 13 13 13 13 12 12 11 10 10 10 10 10 10 10 10 9 9 9 10 10 9 8 7 7 7 6 5 4 4 3 4 7 9 11 12
15 9 5 4 1 0 2 3 4 4 1 2 5 5 5 3 4 6 6 4 2 3 4 7 10 6 3 2 2 2 2 4 7 12 21 26 26 25 26 28 29 31 28 27 27 26 26 27 26 24 24 24 23 22 20 18 16 17 18 16 15 13 13 13 13 12 11 10 10 10 9 10 10 11 10 10 10 10 9 9 10 10 8 8 7 6 6 6 5 3 3 3 3 4 6 7 10
14 6 3 3 1 1 2 3 3 2 3 6 6 7 9 7 7 7 7 7 3 4 8 11 10 4 4 3 2 1 1 5 8 14 24 26 25 24 25 27 28 30 28 27 27 27 27 27 26 24 24 24 23 23 22 20 17 17 17 17 14 13 13 12 12 11 11 10 10 10 10 11 11 11 11 11 11 11 11 10 10 9 8 8 7 7 6 6 5 4 3 3 3 3 5 5 8
11 4 2 2 2 2 3 2 2 2 4 6 7 10 10 7 7 8 9 8 6 8 9 10 6 6 7 5 3 2 3 6 8 16 24 25 24 23 25 27 27 29 28 27 27 27 27 26 25 23 24 24 24 23 23 21 19 17 15 15 14 12 12 11 11 11 11 11 12 12 12 12 11 11 11 11 11 11 11 11 10 9 9 8 7 7 6 5 5 5 5 4 4 3 5 6 6
7 2 3 2 2 4 4 3 2 3 4 4 6 9 10 6 5 8 10 6 6 9 10 8 5 9 9 3 4 4 4 5 9 18 24 24 23 22 24 26 27 28 28 27 26 26 26 26 24 24 25 25 24 23 23 22 19 16 14 15 14 12 11 11 11 12 13 13 13 13 12 11 11 11 11 10 10 10 10 10 9 9 9 8 7 7 6 5 4 5 5 6 6 5 5 6 7
4 1 2 2 3 3 2 2 2 4 4 3 3 6 13 6 5 6 10 7 7 10 10 7 8 12 7 3 4 5 6 6 11 19 23 24 23 22 23 24 25 27 27 26 26 26 25 24 25 26 27 25 24 23 22 21 18 16 15 15 14 12 12 12 13 14 15 15 14 13 11 10 10 10 10 9 9 9 8 8 8 8 8 8 7 7 6 5 4 5 5 6 7 7 6 6 7
4 2 3 2 1 1 1 1 2 3 3 0 2 10 14 3 3 4 8 7 8 9 7 7 13 11 4 4 5 7 8 9 13 18 22 25 23 22 24 23 24 26 26 25 24 24 23 24 25 26 27 25 23 24 22 19 18 17 16 15 14 13 13 13 14 15 16 15 14 13 11 10 10 10 9 8 8 8 7 7 7 7 7 6 6 7 7 5 4 5 6 7 8 8 8 7 7
5 3 3 1 0 1 2 1 1 2 1 1 2 12 10 4 3 2 8 9 7 5 6 11 15 8 3 5 5 10 11 12 15 17 21 23 22 22 24 25 25 25 25 23 21 20 20 22 24 25 27 26 25 26 23 20 20 19 17 16 15 14 14 15 16 17 17 15 14 13 11 10 10 9 8 7 7 7 7 6 6 6 5 5 7 7 6 4 4 3 5 7 9 9 10 9 9
7 4 2 1 1 1 3 2 1 2 1 2 4 12 6 5 5 5 6 6 4 5 10 13 13 3 4 6 5 14 15 15 17 17 20 21 21 22 23 25 24 24 23 21 19 19 19 17 19 24 26 27 26 26 25 22 21 20 18 16 15 15 16 17 17 18 17 15 14 12 11 10 10 9 8 7 6 6 6 5 5 5 5 5 6 7 5 4 3 3 3 6 8 10 10 11 10
7 4 1 1 2 2 3 2 1 2 1 2 6 12 5 5 5 4 3 4 5 9 10 8 10 0 3 7 4 15 20 19 19 18 20 20 20 20 21 23 22 22 19 19 19 19 18 16 17 21 25 28 27 25 24 21 21 21 19 18 17 18 18 18 18 18 17 15 13 12 11 10 10 9 8 7 6 6 5 5 5 4 4 5 5 6 5 4 4 3 3 4 6 8 10 11 11
6 3 1 2 3 3 4 4 4 1 1 1 6 12 5 4 4 4 4 5 7 10 6 5 11 2 2 7 3 12 22 21 20 20 21 21 20 18 19 20 20 20 18 18 19 18 18 16 17 20 23 26 26 24 23 22 21 21 19 19 19 19 19 19 19 18 17 15 13 11 10 9 8 8 7 7 7 6 6 5 5 4 4 4 4 5 5 5 5 4 3 4 6 7 8 11 12
5 2 3 3 3 3 4 5 4 1 2 3 6 10 5 4 3 5 5 5 8 8 3 4 10 4 3 8 4 11 22 21 20 22 23 23 19 17 17 17 18 20 18 18 17 17 17 16 17 19 19 21 23 23 24 23 22 22 21 21 20 20 20 19 19 18 16 14 12 10 8 7 7 6 6 6 6 5 5 6 5 5 4 4 3 3 4 5 5 4 3 4 6 7 7 10 12
4 1 2 3 4 3 3 3 2 2 3 6 7 6 4 5 1 3 2 4 6 6 2 2 7 6 4 7 6 13 22 22 21 23 23 21 16 14 14 14 16 18 18 17 17 16 16 17 18 17 19 21 22 22 22 22 22 23 23 21 20 20 19 19 18 17 14 12 10 9 8 7 6 6 5 5 5 5 4 4 5 5 5 4 2 2 2 4 5 4 3 3 5 6 6 8 11
3 2 3 3 4 4 4 5 7 7 6 7 6 5 6 6 2 5 2 4 4 6 5 4 7 10 9 8 10 15 21 22 21 21 18 14 11 11 12 12 15 17 18 19 18 16 15 16 14 16 21 21 22 23 22 22 22 23 22 21 20 20 19 17 15 14 13 12 10 9 8 7 7 6 5 5 4 4 4 3 4 5 5 4 3 1 1 2 4 4 3 2 3 4 5 7 11
3 4 3 1 3 4 6 8 10 10 8 5 5 6 7 7 2 6 5 5 3 7 10 9 10 13 14 12 13 17 20 21 19 17 15 13 12 14 13 14 16 18 19 20 19 16 14 13 12 18 20 20 20 21 23 22 22 21 20 20 20 19 17 15 13 13 13 11 10 9 8 7 7 7 5 4 3 3 4 4 4 3 4 4 3 2 1 2 3 5 4 3 4 4 4 6 10
3 4 3 2 5 4 7 6 5 6 5 4 4 6 6 6 1 7 9 5 1 3 9 11 11 11 13 14 16 19 19 19 17 17 17 16 17 16 14 15 19 22 19 17 17 14 11 10 15 19 19 19 21 19 21 22 20 19 18 19 20 17 15 14 13 13 12 10 10 9 8 7 7 7 5 4 3 2 3 4 4 3 3 3 3 2 1 1 2 4 4 4 5 5 4 5 9
4 3 2 6 7 6 8 5 5 6 4 4 4 4 5 4 3 4 10 7 2 2 4 6 9 10 11 13 18 21 19 19 19 18 18 19 19 18 17 17 20 21 18 16 16 15 12 10 15 19 20 21 23 21 21 20 19 20 20 19 18 15 14 13 12 12 11 10 9 8 8 8 7 7 5 4 3 2 2 2 3 3 3 2 2 2 1 1 2 3 4 5 4 4 3 4 8
5 3 2 6 9 10 11 10 11 11 9 8 6 6 6 4 3 3 9 12 9 8 8 6 7 11 12 14 19 20 20 21 21 20 18 18 18 18 17 17 18 18 19 20 18 17 16 15 16 19 20 20 18 19 19 19 19 19 18 17 15 13 11 11 10 9 9 9 8 7 8 8 8 6 5 4 3 2 1 1 2 3 3 2 2 2 2 2 2 3 4 5 4 3 2 3 6
4 4 3 4 7 11 12 13 15 15 13 10 6 6 4 4 5 3 7 10 10 11 10 8 8 12 14 16 19 19 21 22 23 22 20 18 15 13 12 14 16 17 21 22 17 18 20 20 19 18 17 16 15 15 16 17 18 16 15 13 12 11 10 9 9 8 8 8 7 7 7 7 6 5 5 5 4 2 1 1 2 2 3 4 3 3 2 3 3 4 5 5 5 4 2 2 6
5 6 5 4 6 10 11 12 14 13 10 5 3 4 0 3 5 5 9 9 8 8 7 6 10 14 14 16 18 19 22 24 24 23 21 19 15 11 9 11 13 15 21 21 17 19 22 22 21 18 17 17 16 15 15 15 14 14 12 11 10 10 9 9 8 8 7 7 6 7 7 6 6 5 5 4 4 3 2 2 2 3 4 5 5 3 3 3 4 6 7 7 6 5 3 2 5
4 6 5 6 8 10 9 9 11 10 9 6 6 2 3 5 5 3 7 7 5 4 5 8 12 13 14 16 17 19 23 26 25 23 20 19 16 11 8 10 12 14 19 21 18 19 20 21 20 18 17 17 16 14 13 13 12 11 10 10 9 8 8 8 7 6 6 6 6 7 7 7 6 5 4 4 4 3 3 3 2 3 4 4 4 4 3 3 4 6 8 9 8 6 4 3 5
2 3 4 5 7 9 8 9 11 7 6 7 7 2 3 5 4 3 4 5 4 6 8 11 12 12 14 15 17 21 25 26 24 21 19 15 12 9 9 10 13 17 20 21 20 19 20 22 21 18 16 15 15 13 12 12 11 10 9 9 9 8 7 6 6 5 6 6 8 9 10 9 8 7 7 7 6 5 4 4 3 3 4 5 5 5 5 4 4 7 10 11 9 8 6 5 6
1 1 3 3 3 5 5 4 5 3 3 2 6 3 1 3 3 3 5 7 7 8 11 13 12 12 14 15 18 22 24 24 23 21 20 14 8 8 11 11 14 20 22 22 22 22 23 24 22 18 16 16 15 14 13 13 12 10 9 9 9 8 6 6 7 7 7 8 9 11 11 8 9 11 11 8 5 5 6 5 4 4 6 7 7 7 6 6 5 6 11 12 9 7 6 6 6
2 2 1 2 2 2 2 1 1 3 2 4 7 4 3 4 4 4 6 9 10 9 12 14 14 13 14 17 21 22 22 23 22 20 19 13 8 8 12 12 16 22 22 24 24 23 23 23 22 18 16 15 16 17 16 14 13 12 10 10 9 7 5 6 7 8 9 9 9 11 9 5 8 12 9 7 4 4 6 6 5 5 8 8 7 7 7 7 6 6 11 13 9 7 6 5 6
1 2 1 1 2 2 1 0 2 3 1 6 8 4 3 4 3 6 8 10 11 10 11 13 15 15 15 19 21 22 21 22 21 20 18 12 10 10 14 16 20 23 23 25 25 22 23 23 21 18 17 15 15 17 15 13 12 11 11 10 9 7 5 6 7 8 10 10 10 9 8 7 8 9 6 7 7 6 7 7 6 6 8 9 8 7 8 7 7 7 10 12 10 8 7 6 6
2 2 2 0 2 2 2 1 4 4 1 5 7 3 4 5 1 6 11 13 12 10 10 13 15 17 17 19 20 22 22 21 20 20 18 13 12 14 16 22 24 23 23 25 25 24 24 23 21 20 19 17 15 14 12 11 11 10 10 9 9 7 6 7 8 10 11 12 12 10 9 8 8 8 5 7 9 9 9 8 6 6 8 9 9 8 8 8 9 9 10 11 10 8 6 6 6
1 1 2 1 2 1 1 2 3 4 1 3 5 3 2 3 2 4 13 15 13 11 11 13 15 17 19 19 20 22 22 22 20 20 19 14 13 16 21 26 25 21 21 24 25 25 23 22 22 21 20 17 14 13 12 11 10 9 9 9 8 7 7 8 8 9 9 10 11 10 9 8 8 7 5 7 10 10 9 8 6 7 8 10 10 9 8 9 10 10 10 11 9 8 6 5 6
1 1 1 1 2 2 1 1 1 1 2 2 4 4 5 3 3 1 11 14 12 11 11 12 13 15 18 20 21 22 22 23 22 21 20 16 15 17 22 25 24 21 21 23 25 25 24 25 24 22 19 16 16 15 13 12 10 9 9 8 7 7 7 6 5 4 5 6 7 7 6 6 6 6 5 7 10 9 9 8 6 7 9 10 11 10 9 10 10 10 11 11 10 9 7 6 6
4 2 2 1 2 2 2 2 1 2 2 3 4 5 10 7 1 1 8 11 11 10 9 10 11 12 16 19 22 23 23 24 23 22 20 16 16 17 18 20 21 20 21 23 25 25 26 28 27 23 19 18 18 16 14 13 11 9 8 7 6 6 5 4 3 2 2 2 2 2 3 5 5 5 6 7 8 8 8 8 7 8 10 10 10 10 9 9 9 10 11 8 7 7 6 6 6
4 2 2 2 2 3 4 3 1 1 2 4 7 8 9 8 4 4 7 9 10 9 8 10 11 12 15 17 21 23 24 24 22 21 19 16 15 16 17 18 20 21 21 22 24 25 25 27 26 23 22 21 20 18 15 14 12 10 8 6 6 6 5 4 3 2 2 2 2 2 2 3 5 6 7 7 7 8 8 8 7 9 10 9 9 9 9 10 10 11 10 6 5 5 6 6 6
4 2 2 2 2 3 4 3 2 2 3 4 6 8 9 7 3 4 7 8 9 9 10 11 12 14 15 17 22 24 23 23 22 20 18 17 16 16 17 18 20 22 22 21 23 25 25 24 23 22 22 22 19 17 15 13 10 8 8 7 7 6 5 3 2 2 0 2 4 4 3 3 5 6 6 7 7 8 8 7 8 10 11 10 10 9 10 11 12 11 10 8 6 6 7 6 6
2 2 1 2 3 4 3 1 1 2 3 2 1 5 9 6 1 1 7 9 10 12 12 11 13 15 16 19 22 22 21 21 21 20 19 18 18 18 18 19 20 23 24 23 24 26 26 24 23 22 21 20 18 14 12 10 8 7 7 7 6 5 4 4 2 3 2 2 3 4 4 4 4 4 5 6 7 7 7 8 9 11 11 11 11 11 11 11 11 12 11 9 8 7 7 7 6
2 1 1 2 2 3 3 1 1 0 2 1 2 4 6 3 2 1 7 8 5 8 10 9 10 12 15 19 20 18 19 20 21 21 20 20 20 20 20 21 21 23 25 25 25 27 28 26 23 22 21 19 16 13 10 9 9 8 7 6 5 4 4 5 4 3 4 3 3 4 4 5 4 3 4 4 5 5 6 6 8 9 10 11 11 11 11 10 9 10 10 9 8 8 8 8 8
2 2 2 2 1 1 2 1 2 1 1 1 3 4 1 1 1 0 4 5 3 4 10 11 9 10 12 16 19 19 21 23 23 23 22 22 23 22 23 24 23 24 26 26 26 27 28 25 22 21 19 17 15 13 10 9 9 9 8 7 5 4 4 6 6 6 6 5 5 5 5 6 6 5 4 4 3 4 4 5 5 6 7 8 8 8 9 8 8 8 8 8 8 8 9 9 8
2 3 4 4 3 4 3 1 1 1 1 1 2 4 3 2 0 2 1 4 5 3 7 11 9 10 13 18 22 22 23 24 25 26 25 25 25 25 25 25 25 26 27 27 27 27 28 24 21 20 18 16 15 13 11 10 10 10 9 7 5 4 5 7 7 7 7 6 5 4 4 4 4 4 4 3 3 3 4 4 5 6 7 6 6 6 6 6 6 7 8 7 7 7 8 7 6
2 5 9 8 5 4 3 2 0 3 2 1 1 2 3 2 0 1 2 2 6 2 4 9 8 9 14 20 24 22 21 23 23 25 26 27 27 26 25 25 28 27 26 26 25 26 28 25 21 20 18 18 16 14 12 11 10 8 7 6 5 5 6 7 7 7 7 7 5 4 3 3 3 4 4 4 4 4 5 5 5 5 6 6 5 5 5 5 5 6 7 8 7 7 7 6 6
2 4 8 8 4 2 2 1 1 2 2 2 1 1 2 1 2 1 2 2 6 3 3 7 9 11 14 21 24 21 20 21 22 23 24 27 27 27 26 26 22 15 11 14 18 22 24 23 22 22 20 19 17 15 13 12 10 9 8 7 7 6 7 7 7 7 7 7 5 4 3 2 2 3 3 4 4 3 2 2 2 1 2 3 5 5 5 5 5 6 7 8 7 7 7 6 6
2 2 5 8 6 5 4 2 2 0 0 2 0 1 2 3 2 2 2 2 5 4 5 7 9 12 15 22 24 21 21 21 21 23 24 25 26 26 24 18 9 6 6 9 14 18 20 19 20 22 19 18 16 15 14 12 10 9 8 6 6 6 7 8 6 6 6 6 5 4 4 3 3 4 5 4 4 4 2 1 1 2 4 5 6 7 7 7 7 7 8 8 8 8 8 8 8
1 2 5 6 5 4 3 2 2 1 1 3 1 4 2 2 1 3 3 0 2 2 5 6 9 12 14 21 23 20 21 20 19 21 22 23 23 22 20 15 11 11 13 14 12 12 17 19 22 23 21 19 17 16 16 13 10 9 8 6 4 6 7 8 6 5 5 5 4 4 3 2 3 4 6 7 6 5 3 2 3 5 7 7 7 7 7 8 8 8 9 10 10 10 10 10 10
2 6 6 5 4 3 2 1 2 1 2 3 2 4 1 3 1 2 1 1 1 3 3 2 6 11 14 20 23 20 19 18 15 17 18 20 19 16 16 18 19 19 18 18 14 13 16 18 22 25 23 21 19 18 17 14 11 8 6 4 5 7 8 8 6 4 5 5 4 4 3 1 2 3 6 7 6 4 4 4 5 7 8 7 7 8 9 10 10 10 11 11 11 11 11 11 12
5 6 6 5 3 2 1 2 1 2 2 2 2 5 1 3 1 1 1 1 2 4 5 4 4 7 12 17 18 14 14 15 13 14 16 17 15 13 15 16 17 17 15 14 15 18 19 17 19 21 21 20 20 19 18 15 11 9 6 3 4 7 9 8 6 4 5 6 6 5 3 3 3 5 7 8 6 4 4 5 6 6 6 5 6 10 11 12 12 12 12 12 12 12 12 13 13
3 2 3 3 1 1 1 1 0 3 3 2 2 3 1 3 2 1 2 3 4 5 6 7 9 10 11 9 6 6 11 14 12 13 14 14 12 11 11 11 11 13 12 10 13 18 19 18 18 17 17 18 18 18 17 15 11 9 6 3 3 5 8 7 6 5 6 7 7 6 4 4 5 7 9 8 6 5 5 6 6 6 5 5 8 11 12 12 11 11 12 13 14 14 14 14 14
2 2 4 3 1 1 2 1 2 3 1 2 1 2 1 1 1 2 5 7 7 6 7 10 11 14 14 10 2 5 11 13 12 13 13 12 11 11 9 7 4 4 5 7 11 13 14 17 19 16 16 18 18 18 19 16 12 9 7 4 4 4 5 6 6 5 6 8 8 6 5 5 7 9 10 8 7 7 7 7 7 7 7 8 10 11 11 11 10 10 11 12 13 15 15 13 12
4 4 4 4 3 2 3 2 1 2 1 2 2 2 1 2 1 3 6 8 9 9 9 9 10 11 11 7 1 6 10 12 12 13 13 13 13 13 11 9 8 5 2 8 10 12 14 17 19 18 20 21 21 23 22 17 14 11 8 6 5 4 4 6 5 4 6 8 7 6 6 6 8 10 10 9 8 9 9 10 10 10 10 11 11 11 11 11 10 10 11 11 12 13 13 12 11
3 1 2 4 4 3 3 3 3 2 2 2 0 2 2 4 2 4 5 5 6 8 8 7 7 8 8 7 7 10 12 14 15 14 13 13 12 11 10 8 6 3 5 10 10 11 14 16 17 20 22 21 21 23 21 17 15 14 12 10 8 8 7 6 5 5 6 7 6 6 6 6 8 9 10 9 9 9 10 11 11 11 12 12 12 12 12 13 12 12 13 12 13 13 12 12 12
1 1 2 2 3 3 1 0 1 1 2 2 1 1 0 1 1 2 1 1 4 9 10 10 10 10 10 11 12 13 14 15 15 14 13 11 7 5 8 9 6 8 12 12 10 10 13 13 15 18 18 18 22 26 26 23 21 18 16 14 12 11 9 9 8 7 7 6 5 6 5 5 7 9 9 9 9 9 9 9 10 10 11 11 11 11 11 12 12 11 12 12 13 13 13 12 13
3 2 3 1 0 3 3 2 2 1 2 2 1 1 1 1 2 1 1 2 5 9 11 12 12 12 11 11 11 13 15 16 17 16 17 14 7 6 9 12 16 20 18 14 11 11 12 12 13 14 14 16 22 27 30 30 26 22 19 15 14 12 11 11 10 8 7 7 6 5 4 4 6 8 8 9 8 8 8 8 8 9 9 10 10 10 10 10 10 10 11 12 13 14 13 13 14
3 3 5 3 2 3 2 2 2 0 4 2 1 1 2 3 2 2 5 7 9 11 11 10 11 12 12 11 11 11 12 14 15 17 18 12 6 6 9 14 21 23 18 13 12 11 11 12 12 11 11 14 21 26 30 31 26 22 18 17 14 10 10 12 12 8 7 8 6 4 2 2 5 6 7 8 8 8 8 7 8 8 8 9 9 10 10 10 10 10 11 13 14 14 14 14 14
1 2 5 3 2 2 2 2 2 3 3 2 2 1 1 2 1 5 7 9 11 12 10 8 10 11 10 11 13 12 11 10 10 10 8 3 2 1 5 12 19 21 18 15 12 9 9 9 10 11 11 13 19 25 30 29 26 23 21 23 22 18 15 15 17 14 6 6 6 4 4 4 4 6 7 8 8 8 8 8 8 8 8 8 9 10 10 10 10 10 11 12 13 13 13 13 13
3 3 4 1 1 2 2 1 2 4 4 2 3 2 2 1 3 7 9 10 11 10 8 6 8 9 8 11 15 15 13 13 12 9 7 8 9 7 4 5 11 14 14 12 9 7 6 7 10 11 13 15 18 23 28 29 28 26 25 26 24 19 18 18 20 19 12 9 9 6 6 5 5 5 6 7 8 8 8 8 8 8 7 8 8 9 9 9 9 9 10 10 10 10 10 9 10
3 4 4 1 1 1 1 1 1 1 3 3 3 3 2 2 3 6 9 10 10 9 7 3 6 8 9 13 17 18 17 16 15 14 13 13 12 10 9 7 5 5 5 5 5 4 4 5 6 8 10 13 15 18 23 26 27 25 25 25 20 14 16 20 21 19 16 18 14 8 7 7 5 6 5 6 7 7 7 7 7 7 7 7 7 8 8 9 9 8 8 8 8 8 7 7 7
3 3 3 3 3 3 4 3 1 1 1 2 3 4 2 2 3 5 7 8 8 7 4 2 8 10 12 16 18 20 20 19 19 18 17 17 15 13 13 12 11 10 8 8 7 7 6 5 4 3 3 5 7 11 15 18 19 20 20 21 18 12 12 19 21 18 19 23 16 9 9 9 7 8 7 7 8 7 8 8 7 8 7 7 7 7 8 8 8 7 7 7 7 7 6 6 5
Wind_Direction
178 164 158 159 158 157 156 161 185 116 240 267 254 256 209 198 294 278 276 279 268 330 168 172 149 161 166 210 175 115 77 156 160 157 197 259 163 169 177 179 178 175 174 173 173 176 178 179 179 181 181 182 180 175 170 164 158 152 148 146 145 146 146 146 146 145 143 140 137 136 134 133 132 130 128 126 126 128 131 136 138 135 134 134 139 143 142 140 142 148 159 168 171 171 155 143 139
168 159 155 156 158 161 165 183 241 142 222 260 230 212 77 161 223 303 302 303 196 94 100 104 112 140 152 126 136 107 85 136 154 132 85 163 159 165 172 173 176 176 174 173 173 175 179 180 180 181 182 182 180 176 171 166 160 154 150 148 146 145 144 144 143 140 137 134 134 135 134 134 135 133 131 129 127 127 128 128 130 131 133 133 132 133 137 137 139 147 157 167 171 173 159 146 143
158 155 154 154 156 159 156 179 267 179 201 238 234 179 121 146 82 349 339 136 141 103 88 95 82 77 61 107 108 62 109 140 165 142 142 161 160 162 166 170 175 177 174 173 173 176 179 181 180 182 182 182 180 175 171 164 158 155 152 150 148 146 145 143 140 139 136 135 136 136 136 136 138 138 135 132 129 129 129 129 127 127 131 135 134 128 126 126 132 141 151 164 171 173 160 147 146
149 152 153 152 150 147 150 194 259 191 207 224 257 163 176 137 62 359 64 133 146 77 61 92 65 50 30 96 46 10 108 144 179 162 155 163 163 161 164 171 176 177 175 173 174 177 180 182 181 182 183 182 178 173 168 162 156 153 152 153 151 149 147 145 142 141 141 141 140 139 138 138 140 141 139 136 134 134 133 132 130 127 127 131 134 130 122 117 117 125 140 158 168 172 162 154 153
146 150 154 154 157 161 150 199 123 214 216 193 274 97 168 141 63 21 98 160 191 17 55 111 91 79 59 62 11 46 110 143 176 176 161 163 165 161 164 171 175 176 175 175 176 177 181 183 182 183 182 180 177 171 166 160 155 152 152 154 153 152 148 146 145 146 148 147 145 143 142 143 144 145 143 141 137 137 136 134 132 128 127 127 128 124 119 112 106 106 121 148 165 172 165 160 158
149 147 151 159 178 171 159 204 198 223 225 178 234 100 147 176 9 358 12 242 234 248 77 114 118 115 87 57 37 117 120 164 176 184 164 161 165 163 165 171 176 178 175 176 177 178 181 183 184 184 182 179 175 169 165 160 157 155 153 155 155 153 150 147 148 150 152 151 150 149 151 153 153 155 153 149 142 137 137 138 136 133 131 131 129 122 115 109 102 96 100 130 160 173 171 167 162
151 144 150 164 149 165 213 227 218 233 220 169 239 297 204 224 279 284 307 282 239 220 194 149 143 124 112 95 93 130 242 216 185 188 166 160 164 165 167 172 177 178 177 177 179 179 180 184 186 184 181 178 173 169 164 162 162 159 155 156 156 154 154 153 154 156 156 155 156 157 160 163 166 167 163 157 150 143 141 142 141 138 136 137 137 126 116 110 106 95 89 102 145 167 171 170 161
156 145 157 171 129 93 234 237 241 237 214 231 260 279 281 270 234 263 284 257 233 196 161 152 158 142 132 161 154 186 290 181 187 184 166 161 164 168 169 174 178 179 179 179 179 181 181 185 187 183 180 177 173 170 166 166 167 163 156 154 156 157 159 161 162 162 161 161 163 164 166 169 170 170 168 163 157 153 149 146 146 142 143 144 143 134 125 121 120 115 107 103 125 158 163 166 155
161 151 158 178 167 207 235 251 256 237 265 278 274 260 271 271 243 253 252 240 228 155 148 153 168 162 151 165 152 177 153 162 185 177 167 165 165 169 172 176 179 179 180 180 182 183 183 186 186 181 177 177 174 172 170 167 168 168 160 154 155 159 163 168 169 168 167 167 165 163 162 161 160 161 162 162 159 158 154 154 153 148 148 149 147 141 136 135 140 147 151 148 134 156 163 169 157
162 165 153 152 177 210 233 244 248 254 259 276 284 271 279 275 241 238 239 245 204 164 152 159 166 144 147 155 140 154 146 156 182 175 170 169 167 171 174 178 181 181 181 183 185 185 185 185 181 178 176 177 177 176 172 167 168 170 162 155 157 164 168 172 172 171 171 165 161 158 156 153 151 152 151 153 154 155 155 158 154 149 151 152 153 147 141 145 154 164 169 172 157 161 169 175 169
159 179 158 171 205 211 230 242 242 274 268 291 287 281 306 286 229 226 229 236 185 163 158 164 142 134 141 142 145 155 152 156 177 174 173 173 171 175 177 179 182 184 184 184 184 185 186 182 176 175 177 177 180 180 172 165 167 168 163 160 163 170 171 170 171 171 166 159 158 156 153 150 148 147 144 145 145 147 151 153 149 149 151 153 158 150 146 158 166 174 178 182 176 173 176 179 180
165 148 166 210 217 212 240 254 262 287 282 307 305 332 339 297 212 217 216 204 167 159 161 179 154 139 132 136 153 156 163 167 176 176 175 175 175 180 181 179 182 187 189 186 185 185 184 180 175 174 175 176 180 180 170 164 168 171 169 167 169 174 170 168 171 166 160 157 157 156 152 150 147 145 141 141 138 138 140 141 145 150 154 159 162 147 143 157 162 175 184 190 187 181 181 183 190
186 132 173 212 225 216 193 240 280 295 293 302 325 343 348 318 237 226 189 162 157 158 156 172 156 140 109 135 154 165 176 180 180 181 177 178 182 183 183 179 182 188 191 191 189 185 185 182 174 173 174 175 179 177 169 165 171 175 174 172 172 172 167 167 169 162 158 158 158 157 154 150 145 142 138 138 134 133 133 135 142 149 157 161 153 140 139 148 153 169 183 193 193 188 186 186 195
197 163 184 206 131 189 186 244 274 240 301 120 352 347 358 20 355 154 148 143 150 152 150 162 156 136 119 147 167 177 184 189 185 187 181 182 187 186 186 184 183 187 190 193 191 184 190 187 172 173 174 171 178 175 168 171 174 173 174 172 169 167 166 168 167 163 161 160 159 158 156 151 144 141 138 137 134 131 130 132 136 139 143 146 144 141 143 151 157 166 183 196 198 193 192 189 196
193 160 152 183 155 204 209 235 258 195 103 124 6 359 14 50 55 123 127 134 133 139 145 158 162 137 172 172 183 183 187 191 187 189 183 183 190 187 186 186 183 184 186 187 186 184 193 194 176 175 173 170 177 171 165 173 172 170 173 170 167 167 167 169 169 168 165 162 162 161 157 151 145 144 141 139 137 132 126 125 126 126 128 133 143 148 149 161 170 167 185 203 206 202 199 194 196
171 147 126 198 181 204 198 196 214 177 119 179 7 9 30 55 61 111 113 135 126 141 143 161 175 139 195 183 187 184 185 187 186 187 183 182 186 181 179 183 183 182 181 179 183 185 189 193 181 176 173 170 169 162 162 171 170 171 174 170 169 168 168 170 172 171 168 167 168 167 162 155 150 147 146 146 146 138 127 122 120 121 123 126 136 147 152 165 179 176 184 203 212 212 206 200 197
153 152 190 201 196 203 193 191 187 161 344 236 8 8 12 33 52 87 102 146 139 144 140 172 186 235 225 197 223 189 183 184 186 184 182 181 177 171 173 178 181 179 176 177 183 186 187 187 179 175 175 164 155 156 163 169 171 172 174 172 171 169 168 171 173 173 171 173 175 174 167 158 154 151 154 156 154 146 133 125 122 122 125 126 130 138 148 166 184 185 188 198 206 213 209 203 199
159 166 210 214 194 188 189 192 190 183 339 333 352 358 2 11 50 104 103 128 136 148 132 164 192 237 235 207 226 190 182 182 187 185 182 180 173 167 169 172 178 178 176 178 181 188 187 180 177 174 165 150 147 160 166 168 171 173 176 175 173 170 170 173 176 175 173 175 176 177 173 165 163 160 163 162 154 147 138 131 126 123 126 129 130 127 134 163 189 195 192 201 202 207 207 201 196
170 135 216 220 188 200 203 199 225 232 318 324 328 349 345 329 289 164 132 123 142 164 153 152 200 221 215 203 194 182 181 183 188 188 184 179 170 164 164 168 173 175 177 177 178 185 183 179 181 164 143 144 155 165 166 169 173 175 179 177 172 171 172 178 179 174 171 172 175 181 182 177 173 173 177 168 155 146 139 137 132 128 130 131 134 116 112 157 187 197 198 211 205 205 205 197 192
187 183 224 223 204 247 243 227 248 259 292 308 320 336 333 335 225 202 155 136 168 200 191 170 199 205 195 183 180 180 180 185 189 187 180 160 149 156 158 159 164 176 183 182 183 186 187 187 174 142 136 150 160 165 168 172 175 177 181 178 173 173 176 180 177 172 170 171 177 186 186 185 185 189 191 173 159 149 142 142 140 142 142 137 140 117 81 144 177 186 190 205 203 206 208 194 189
171 194 234 182 174 247 253 249 260 272 281 279 318 325 336 1 209 198 162 154 199 229 216 206 209 206 194 182 179 180 178 181 182 175 165 151 160 170 168 170 174 186 189 186 188 187 191 186 153 136 140 154 162 167 171 174 178 180 183 181 175 175 177 176 173 172 173 173 182 192 191 191 196 201 198 175 159 150 151 152 152 167 160 146 147 143 121 150 176 186 185 194 199 204 209 195 188
164 204 239 166 161 239 266 271 278 282 281 272 317 324 329 357 316 194 182 187 193 227 232 230 234 223 203 190 180 179 176 172 167 166 175 182 185 175 166 177 184 189 189 190 193 188 186 164 138 136 140 159 169 172 177 177 178 177 181 185 180 176 175 175 176 177 179 179 184 194 198 199 203 204 192 171 165 153 156 164 166 182 177 162 161 157 162 164 180 191 188 195 200 199 208 203 188
210 219 226 218 204 238 273 284 286 281 282 284 295 304 309 336 332 220 206 228 247 255 275 256 246 234 210 192 182 179 170 162 166 175 188 191 189 183 181 190 194 191 188 191 190 185 185 156 140 144 153 172 175 175 180 176 178 177 180 186 182 175 174 179 181 178 183 187 188 193 198 203 205 203 186 166 169 162 140 169 182 192 190 186 187 182 208 195 179 188 189 191 195 196 209 210 189
222 215 211 240 228 237 265 278 286 286 276 280 281 282 287 274 293 249 224 239 247 265 284 282 251 226 207 191 182 174 161 162 172 180 189 185 183 186 189 202 203 192 185 182 180 183 180 157 155 164 172 182 177 176 178 175 182 183 183 186 178 174 175 179 182 183 186 189 191 188 190 199 204 204 193 178 173 171 112 125 176 191 195 193 203 220 224 202 178 182 181 179 181 186 195 201 190
213 218 215 240 238 246 270 282 287 290 283 286 276 263 273 243 234 234 246 249 251 265 274 271 242 213 200 187 175 164 161 172 177 180 185 175 164 168 181 204 202 195 190 180 175 179 169 156 166 176 178 183 178 175 177 180 188 185 184 180 174 180 179 179 186 191 194 192 192 188 189 197 203 198 190 190 178 167 146 132 145 167 185 183 190 216 212 182 173 176 167 165 167 160 158 183 191
196 209 214 224 254 269 283 285 286 293 292 290 240 239 318 206 217 239 257 256 256 263 260 240 215 196 184 176 168 164 171 181 182 182 183 169 164 174 179 198 200 199 195 180 170 169 162 159 169 177 176 176 173 175 180 188 191 184 182 177 177 185 182 184 189 193 196 194 197 197 198 202 209 204 190 190 177 171 170 168 166 165 180 183 184 200 193 165 166 173 165 162 159 147 146 165 188
188 202 221 238 265 283 281 272 277 289 289 263 224 244 73 150 188 244 251 245 242 225 210 200 191 180 170 165 163 170 180 187 189 185 177 169 178 185 158 173 187 191 189 177 166 160 156 157 165 174 174 171 171 177 180 186 191 187 185 183 187 188 186 193 193 200 208 211 216 213 213 211 219 227 212 199 182 182 181 177 186 177 185 191 189 189 173 158 161 171 170 166 161 158 165 164 176
232 203 234 254 276 279 261 261 274 277 283 258 215 211 75 142 186 247 228 211 191 182 187 180 174 169 164 160 163 178 186 190 192 186 178 172 185 185 152 164 171 172 177 168 156 148 147 152 158 162 164 167 170 172 170 172 185 193 195 195 198 199 200 209 214 224 234 239 239 232 224 215 221 230 223 215 199 198 201 188 194 201 197 195 195 193 179 166 164 175 177 174 172 174 179 173 169
245 167 260 280 315 280 237 261 281 221 268 245 177 212 246 185 211 224 207 189 175 181 179 168 167 163 160 162 170 183 190 193 192 191 194 182 175 175 161 170 166 163 167 159 153 149 147 150 152 151 157 166 167 169 172 171 176 185 199 206 208 209 212 226 233 239 247 250 250 249 241 221 220 228 226 226 212 203 211 200 204 217 208 202 200 199 194 176 172 185 184 183 183 181 185 180 173
189 123 288 293 307 273 184 302 319 188 257 151 161 235 241 217 236 213 197 185 177 175 171 169 165 158 161 170 178 185 191 197 193 196 201 172 150 172 176 190 175 164 162 156 155 152 148 148 150 150 152 160 166 168 173 176 180 187 201 214 216 218 229 235 237 243 249 251 249 255 263 251 233 234 230 229 222 206 209 204 209 219 214 212 206 207 212 197 185 191 194 195 191 184 187 183 185
110 152 157 330 242 205 155 247 162 176 217 157 178 250 240 235 246 204 197 187 184 177 167 171 166 163 173 176 181 186 190 199 197 200 204 171 153 169 182 196 179 167 163 156 154 151 148 147 146 151 150 159 170 167 167 174 180 190 202 217 223 226 236 238 239 240 242 245 243 246 257 258 247 244 231 211 206 205 206 204 209 217 214 212 208 211 220 218 208 201 201 205 201 193 188 184 193
41 194 183 114 220 230 310 228 195 212 131 156 197 245 249 253 254 193 198 190 191 184 171 173 168 170 178 178 183 187 189 197 199 203 205 184 167 164 179 191 178 169 165 158 154 151 151 147 145 155 159 167 175 168 168 173 178 188 197 208 216 221 229 235 240 243 244 246 248 248 248 249 245 245 236 206 199 204 206 201 204 214 211 208 210 212 213 219 220 212 208 209 210 208 200 198 207
40 239 203 171 191 237 307 163 212 251 113 155 220 248 255 258 341 211 196 191 193 188 180 178 170 171 178 179 183 187 190 193 196 203 204 193 176 167 177 186 180 170 165 163 159 156 157 154 157 167 169 172 175 170 171 178 185 192 195 200 205 214 222 232 243 247 250 250 251 251 247 244 239 233 227 207 198 202 203 194 199 213 210 206 206 209 206 212 223 222 217 209 203 205 204 211 218
162 242 188 179 208 211 253 188 148 255 196 196 219 238 242 239 9 219 188 189 195 192 187 179 168 172 178 180 185 190 193 195 197 201 205 200 185 177 178 181 181 175 169 169 166 164 163 161 170 177 176 179 177 173 178 184 191 193 196 200 203 211 216 228 245 251 257 257 253 249 237 229 225 219 213 204 198 200 200 196 205 214 209 202 202 206 206 213 226 232 231 213 194 199 205 206 210
173 179 165 175 222 211 262 254 124 129 214 214 185 221 240 237 336 165 186 190 196 197 192 179 167 173 180 182 189 192 195 200 202 202 205 203 192 188 182 177 182 179 175 178 176 172 167 168 177 179 178 183 179 179 185 187 190 192 194 198 201 206 205 214 228 249 285 286 256 239 215 205 200 198 196 194 196 199 202 208 214 212 207 201 200 207 210 218 229 238 245 225 188 199 207 197 199
151 154 165 177 218 236 255 257 248 189 223 226 207 216 235 237 227 194 191 192 197 198 192 185 174 177 186 188 194 197 197 202 206 205 207 208 203 196 185 179 186 185 181 187 187 182 179 179 179 175 176 182 180 182 185 184 185 186 187 190 191 188 188 205 220 246 308 17 61 80 144 174 168 174 180 183 191 195 200 208 207 205 206 203 203 212 216 223 229 236 250 245 203 206 210 199 199
127 133 164 198 234 260 253 239 288 263 237 242 219 220 234 241 232 187 186 189 199 200 196 198 184 179 188 193 198 201 200 202 206 207 207 211 211 202 189 183 189 190 189 195 196 193 193 189 179 174 178 182 181 180 178 177 177 174 175 177 173 172 173 180 193 209 270 49 61 72 98 132 146 164 182 190 190 193 199 201 196 199 205 209 215 223 222 220 223 229 243 249 233 224 224 216 210
126 160 199 238 220 252 263 189 330 270 238 272 137 216 231 231 292 179 188 190 203 206 202 204 192 182 188 196 203 204 201 203 204 205 208 211 211 204 196 191 194 196 195 198 200 200 199 191 182 178 180 182 178 174 170 165 157 152 159 161 157 157 143 119 123 160 152 101 73 76 96 121 140 160 181 191 187 187 191 190 193 199 208 215 219 221 218 213 214 219 230 236 230 228 237 236 224
128 158 227 246 204 256 275 118 44 326 218 252 135 200 231 244 345 298 207 201 216 222 219 222 203 186 189 196 203 203 202 203 203 206 207 208 209 205 198 196 198 201 202 203 203 203 199 192 186 183 183 182 175 169 165 157 150 146 144 145 141 132 108 90 96 135 131 112 89 78 88 107 124 142 159 168 166 171 178 182 191 200 207 214 214 211 208 207 208 213 223 228 226 227 234 236 232
175 172 216 241 179 237 237 121 51 47 340 280 170 154 126 4 11 200 214 231 289 262 230 237 229 201 195 199 205 207 204 203 204 206 205 206 208 204 199 199 202 205 206 206 204 201 196 192 190 186 184 181 173 170 166 160 159 153 148 151 144 125 100 88 98 119 114 103 101 97 97 107 116 126 135 141 147 159 168 170 178 187 193 198 199 198 199 203 205 208 215 222 226 224 224 228 227
212 204 218 237 220 216 230 7 20 148 94 314 175 141 100 43 159 148 158 244 264 275 220 228 231 213 206 206 211 213 210 208 207 205 205 206 205 204 203 201 203 206 208 209 207 201 196 192 189 187 185 180 175 173 169 167 167 159 157 161 157 135 98 84 98 121 128 126 124 122 130 139 140 146 151 160 181 197 202 201 204 207 211 213 209 203 203 208 213 210 209 209 213 213 215 214 203
228 214 217 228 222 214 246 333 339 189 153 48 274 166 120 41 156 157 22 254 228 222 213 221 213 204 208 211 216 216 212 212 212 210 208 207 206 207 206 206 209 210 211 210 203 198 196 191 185 185 184 180 178 178 175 176 172 154 140 128 120 109 83 74 89 108 124 135 141 150 172 204 213 220 228 234 237 241 244 240 235 229 226 225 215 204 200 202 206 201 193 194 196 198 201 195 181
228 214 208 214 213 211 241 251 208 201 143 86 305 206 136 96 121 109 355 242 209 208 226 227 212 203 209 216 219 219 213 212 214 215 214 212 211 210 211 213 211 196 181 188 191 197 194 185 184 186 184 181 181 186 186 184 173 146 124 108 98 89 67 62 81 95 102 106 109 114 118 146 186 204 215 224 221 217 227 233 238 216 179 180 168 158 159 164 170 167 167 173 175 176 174 171 173
199 186 172 178 193 212 208 187 167 283 286 142 302 332 125 130 108 21 335 200 192 214 218 224 223 212 214 221 223 220 218 217 217 216 217 216 216 217 216 212 193 140 147 193 204 202 187 179 190 191 187 188 189 193 194 189 175 149 140 131 101 75 53 50 69 88 91 88 81 72 71 89 115 131 141 147 148 146 146 166 192 140 130 136 135 135 139 139 143 143 145 149 149 148 143 144 154
230 144 139 153 172 183 171 160 127 40 243 166 27 347 128 135 358 344 338 208 179 237 226 219 227 223 220 225 225 222 222 223 223 221 220 219 220 222 219 211 216 223 219 219 216 192 176 183 196 194 192 197 195 195 195 189 178 161 159 152 97 58 41 36 48 67 69 70 67 55 46 62 100 124 133 139 144 146 143 146 150 133 126 126 125 127 131 134 137 139 142 142 141 142 140 142 146
147 135 105 95 96 91 104 129 117 114 223 174 20 340 159 145 347 339 1 35 28 324 301 240 234 235 230 230 230 226 225 226 225 224 224 224 224 222 217 218 229 230 220 216 209 185 181 187 190 192 198 200 195 193 194 191 181 173 174 149 83 52 37 29 35 47 40 41 45 48 57 89 114 118 128 138 145 139 126 126 132 131 128 126 124 125 126 128 132 133 137 141 141 143 144 144 146
148 143 100 94 75 51 70 46 65 184 198 146 357 326 261 155 200 268 202 53 355 325 314 321 300 266 247 239 237 229 224 225 221 216 219 223 220 213 213 216 225 228 221 216 202 188 189 188 185 192 201 204 200 195 195 196 186 180 182 146 68 44 36 34 43 47 33 33 33 40 66 109 127 124 124 126 124 113 114 125 135 138 138 134 130 134 134 130 129 128 129 134 137 140 142 142 143
159 148 116 133 71 31 101 34 336 198 180 95 7 312 264 169 163 262 302 335 345 327 309 314 319 307 291 277 258 230 225 222 215 206 207 213 205 193 200 204 215 226 222 214 200 190 190 191 191 198 209 210 206 201 203 203 192 184 182 159 82 43 36 46 62 53 36 36 35 39 68 103 120 124 122 118 112 107 116 128 140 150 151 145 141 144 145 139 135 133 128 128 130 131 132 133 134
177 132 141 169 156 170 200 210 212 213 188 66 11 291 230 126 101 331 322 337 346 329 307 302 302 304 310 321 324 215 218 212 201 192 187 187 174 157 155 150 151 198 223 220 201 192 202 205 198 200 213 218 218 221 221 216 206 194 183 162 119 68 49 64 75 59 43 42 41 50 73 96 116 124 120 118 118 115 119 124 128 135 136 136 140 145 149 148 146 143 136 135 134 132 131 130 129
188 162 163 179 155 159 194 186 221 242 187 68 352 280 157 123 51 339 328 333 339 329 315 306 303 310 324 341 88 175 189 192 185 177 172 166 155 145 139 130 114 99 282 251 212 203 221 220 207 200 204 211 222 228 226 219 211 200 190 178 147 125 108 99 95 79 58 48 49 64 84 101 118 126 124 122 121 118 120 122 120 120 121 123 128 132 135 135 132 130 131 135 135 132 129 125 121
184 148 152 182 169 178 209 198 197 200 140 85 4 235 156 139 99 356 323 316 347 357 351 345 348 2 31 73 118 146 159 167 168 165 162 157 151 151 163 163 127 93 259 245 226 216 217 214 210 208 207 208 215 226 230 226 217 208 202 191 169 157 150 139 136 122 88 64 59 69 87 113 126 132 131 126 124 122 123 124 123 121 119 117 117 118 119 118 117 118 119 122 124 122 120 119 117
132 85 149 192 186 163 146 120 169 179 134 121 185 231 344 112 93 353 299 210 36 27 20 20 27 38 63 90 114 135 145 152 158 159 153 151 157 192 214 221 241 264 253 238 232 229 221 216 212 215 224 225 220 225 232 232 227 223 221 208 183 168 162 159 153 138 115 95 80 75 86 123 138 138 138 134 131 130 130 130 130 127 123 119 116 115 115 113 112 113 115 118 118 116 115 118 118
135 174 178 174 81 123 119 114 53 9 190 169 130 148 124 171 192 288 9 46 32 23 22 26 31 40 56 73 99 126 140 149 155 157 155 160 184 221 231 234 231 235 240 239 240 240 237 238 231 228 241 238 227 228 230 229 226 224 220 200 176 165 160 158 150 137 127 116 95 79 87 130 145 146 145 143 142 141 141 142 140 135 128 121 116 113 111 109 109 111 115 117 115 113 115 117 117
142 186 164 132 67 82 115 158 98 139 199 167 73 109 166 177 169 1 356 2 2 0 7 23 32 38 45 53 75 106 129 143 151 157 160 169 201 222 218 214 210 216 229 245 259 261 250 252 260 261 255 239 229 228 229 227 221 218 210 195 191 194 186 178 176 168 139 122 110 92 107 154 155 155 154 150 149 147 148 149 147 142 133 124 117 110 106 104 107 111 115 116 113 114 117 117 117
45 152 135 133 192 159 152 170 152 180 189 142 127 171 227 198 8 342 333 340 342 339 347 17 35 34 39 53 68 85 102 112 123 140 149 138 25 342 216 208 209 219 236 253 265 265 247 246 261 266 256 237 226 224 226 224 220 222 220 218 227 230 214 197 191 193 176 138 151 152 156 183 181 169 163 158 156 153 153 154 150 145 136 127 119 111 107 106 108 111 113 114 114 115 117 117 119
52 118 122 18 288 168 167 163 169 190 182 140 153 184 199 158 347 318 309 323 326 321 330 10 42 37 41 64 75 80 85 87 89 95 90 73 65 64 91 189 214 228 241 250 253 250 241 240 246 248 241 230 225 226 227 226 226 231 232 233 240 234 215 201 194 203 211 192 193 189 170 189 206 190 177 166 162 158 158 159 154 148 138 130 123 116 113 109 109 110 109 111 111 111 112 111 113
130 155 161 149 77 94 163 108 44 202 176 153 164 183 169 80 353 311 307 316 315 304 304 359 60 59 57 71 82 84 86 88 90 93 92 85 83 87 100 119 150 184 203 213 213 219 226 229 234 239 237 231 230 230 228 229 233 239 242 241 240 236 224 209 201 208 205 194 201 202 183 195 210 205 196 176 168 164 163 163 158 154 145 136 130 123 121 115 109 104 97 97 98 99 101 98 97
173 170 174 157 126 143 171 169 140 8 168 169 173 175 141 43 349 321 318 317 319 313 283 110 76 70 68 69 77 83 85 86 86 91 94 93 94 96 99 101 102 106 108 110 112 111 114 123 146 171 200 220 229 232 230 234 239 244 250 243 232 239 241 217 207 206 195 195 204 205 194 203 208 209 207 191 183 174 169 168 165 163 159 152 146 136 130 124 115 107 94 88 85 85 91 91 90